Time,TemperatureF,DewpointF,PressureIn,WindDirection,WindDirectionDegrees,WindSpeedMPH,WindSpeedGustMPH,Humidity,HourlyPrecipIn,Conditions,Clouds,dailyrainin,SolarRadiationWatts/m^2,SoftwareType,DateUTC
2013-02-04 00:03:00,36.8,23.0,29.98,WNW,299,0.0,4.0,58,0.00,,,0.00,0,weatherlink.com 1.10,2013-02-04 05:03:00,
2013-02-04 00:18:00,36.5,23.0,29.98,NW,326,3.0,6.0,59,0.00,,,0.00,0,weatherlink.com 1.10,2013-02-04 05:18:00,
2013-02-04 00:34:00,36.1,23.0,29.98,NW,313,3.0,6.0,59,0.00,,,0.00,0,weatherlink.com 1.10,2013-02-04 05:34:00,
2013-02-04 00:48:00,35.3,23.0,29.99,NW,313,0.0,2.0,61,0.00,,,0.00,0,weatherlink.com 1.10,2013-02-04 05:48:00,
2013-02-04 01:03:00,34.4,23.0,29.99,NW,313,0.0,1.0,63,0.00,,,0.00,0,weatherlink.com 1.10,2013-02-04 06:03:00,
2013-02-04 01:19:00,33.6,23.0,29.99,NW,313,0.0,0.0,64,0.00,,,0.00,0,weatherlink.com 1.10,2013-02-04 06:19:00,
2013-02-04 01:33:00,33.0,22.0,29.99,NW,313,0.0,0.0,65,0.00,,,0.00,0,weatherlink.com 1.10,2013-02-04 06:33:00,
2013-02-04 01:48:00,32.2,22.0,29.99,NW,313,0.0,0.0,66,0.00,,,0.00,0,weatherlink.com 1.10,2013-02-04 06:48:00,
2013-02-04 02:04:00,31.0,22.0,30.00,NW,313,0.0,0.0,69,0.00,,,0.00,0,weatherlink.com 1.10,2013-02-04 07:04:00,
2013-02-04 02:19:00,30.3,22.0,30.00,NW,313,0.0,0.0,70,0.00,,,0.00,0,weatherlink.com 1.10,2013-02-04 07:19:00,
2013-02-04 02:34:00,29.7,22.0,30.00,NW,313,0.0,0.0,72,0.00,,,0.00,0,weatherlink.com 1.10,2013-02-04 07:34:00,
2013-02-04 02:49:00,28.7,21.0,30.01,NW,313,0.0,1.0,73,0.00,,,0.00,0,weatherlink.com 1.10,2013-02-04 07:49:00,
2013-02-04 03:04:00,27.9,21.0,30.01,NW,313,0.0,0.0,76,0.00,,,0.00,0,weatherlink.com 1.10,2013-02-04 08:04:00,
2013-02-04 03:19:00,27.5,21.0,30.02,NW,313,0.0,0.0,76,0.00,,,0.00,0,weatherlink.com 1.10,2013-02-04 08:19:00,
2013-02-04 03:34:00,27.1,21.0,30.02,NW,313,0.0,0.0,77,0.00,,,0.00,0,weatherlink.com 1.10,2013-02-04 08:34:00,
2013-02-04 03:49:00,26.7,21.0,30.02,NW,313,0.0,0.0,78,0.00,,,0.00,0,weatherlink.com 1.10,2013-02-04 08:49:00,
2013-02-04 04:04:00,26.5,21.0,30.03,NW,313,0.0,0.0,79,0.00,,,0.00,0,weatherlink.com 1.10,2013-02-04 09:04:00,
2013-02-04 04:19:00,26.4,21.0,30.03,NW,313,0.0,0.0,80,0.00,,,0.00,0,weatherlink.com 1.10,2013-02-04 09:19:00,
2013-02-04 04:34:00,26.4,21.0,30.03,NW,313,0.0,0.0,79,0.00,,,0.00,0,weatherlink.com 1.10,2013-02-04 09:34:00,
2013-02-04 04:49:00,26.2,21.0,30.03,NW,313,0.0,0.0,80,0.00,,,0.00,0,weatherlink.com 1.10,2013-02-04 09:49:00,
2013-02-04 05:04:00,26.1,20.0,30.04,NW,313,0.0,0.0,79,0.00,,,0.00,0,weatherlink.com 1.10,2013-02-04 10:04:00,
2013-02-04 05:19:00,25.6,20.0,30.04,NW,313,0.0,0.0,80,0.00,,,0.00,0,weatherlink.com 1.10,2013-02-04 10:19:00,
2013-02-04 05:34:00,25.2,20.0,30.04,NW,313,0.0,0.0,81,0.00,,,0.00,0,weatherlink.com 1.10,2013-02-04 10:34:00,
2013-02-04 05:49:00,24.9,20.0,30.05,NW,313,0.0,0.0,82,0.00,,,0.00,0,weatherlink.com 1.10,2013-02-04 10:49:00,
2013-02-04 06:04:00,24.7,20.0,30.05,NW,313,0.0,0.0,83,0.00,,,0.00,0,weatherlink.com 1.10,2013-02-04 11:04:00,
2013-02-04 06:19:00,24.5,20.0,30.06,NW,313,0.0,0.0,83,0.00,,,0.00,0,weatherlink.com 1.10,2013-02-04 11:19:00,
2013-02-04 06:34:00,24.7,21.0,30.07,NW,313,0.0,0.0,84,0.00,,,0.00,0,weatherlink.com 1.10,2013-02-04 11:34:00,
2013-02-04 06:49:00,25.0,21.0,30.07,NW,313,0.0,0.0,84,0.00,,,0.00,0,weatherlink.com 1.10,2013-02-04 11:49:00,
2013-02-04 07:04:00,25.1,21.0,30.08,NW,313,0.0,0.0,84,0.00,,,0.00,5,weatherlink.com 1.10,2013-02-04 12:04:00,
2013-02-04 07:20:00,25.3,21.0,30.08,NW,313,0.0,0.0,84,0.00,,,0.00,9,weatherlink.com 1.10,2013-02-04 12:20:00,
2013-02-04 07:34:00,25.5,22.0,30.09,NW,313,0.0,0.0,85,0.00,,,0.00,28,weatherlink.com 1.10,2013-02-04 12:34:00,
2013-02-04 07:49:00,25.9,22.0,30.09,NW,313,0.0,0.0,85,0.00,,,0.00,60,weatherlink.com 1.10,2013-02-04 12:49:00,
2013-02-04 08:05:00,26.7,23.0,30.09,NW,313,0.0,0.0,85,0.00,,,0.00,76,weatherlink.com 1.10,2013-02-04 13:05:00,
2013-02-04 08:19:00,27.8,24.0,30.10,NW,313,0.0,0.0,85,0.00,,,0.00,91,weatherlink.com 1.10,2013-02-04 13:19:00,
2013-02-04 08:35:00,29.1,25.0,30.11,NW,313,0.0,0.0,85,0.00,,,0.00,181,weatherlink.com 1.10,2013-02-04 13:35:00,
2013-02-04 08:50:00,30.8,25.0,30.12,NW,313,0.0,0.0,80,0.00,,,0.00,237,weatherlink.com 1.10,2013-02-04 13:50:00,
2013-02-04 09:05:00,33.6,24.0,30.12,NW,319,2.0,5.0,69,0.00,,,0.00,262,weatherlink.com 1.10,2013-02-04 14:05:00,
2013-02-04 09:20:00,34.1,24.0,30.12,NNE,26,0.0,6.0,66,0.00,,,0.00,234,weatherlink.com 1.10,2013-02-04 14:20:00,
2013-02-04 09:35:00,35.7,23.0,30.12,NE,44,1.0,5.0,61,0.00,,,0.00,292,weatherlink.com 1.10,2013-02-04 14:35:00,
2013-02-04 09:50:00,35.3,22.0,30.12,NW,308,2.0,5.0,59,0.00,,,0.00,265,weatherlink.com 1.10,2013-02-04 14:50:00,
2013-02-04 10:05:00,36.2,22.0,30.12,North,355,0.0,4.0,57,0.00,,,0.00,230,weatherlink.com 1.10,2013-02-04 15:05:00,
2013-02-04 10:20:00,37.1,22.0,30.12,NW,306,5.0,6.0,54,0.00,,,0.00,330,weatherlink.com 1.10,2013-02-04 15:20:00,
2013-02-04 10:35:00,37.7,21.0,30.13,West,268,5.0,5.0,52,0.00,,,0.00,244,weatherlink.com 1.10,2013-02-04 15:35:00,
2013-02-04 10:50:00,38.2,21.0,30.13,NW,311,1.0,5.0,51,0.00,,,0.00,320,weatherlink.com 1.10,2013-02-04 15:50:00,
2013-02-04 11:05:00,39.1,22.0,30.13,WNW,296,2.0,9.0,50,0.00,,,0.00,473,weatherlink.com 1.10,2013-02-04 16:05:00,
2013-02-04 11:20:00,40.5,22.0,30.12,ENE,69,1.0,7.0,47,0.00,,,0.00,517,weatherlink.com 1.10,2013-02-04 16:20:00,
2013-02-04 11:35:00,40.7,21.0,30.12,WNW,291,2.0,9.0,45,0.00,,,0.00,578,weatherlink.com 1.10,2013-02-04 16:35:00,
2013-02-04 11:51:00,41.8,21.0,30.11,West,280,0.0,9.0,44,0.00,,,0.00,522,weatherlink.com 1.10,2013-02-04 16:51:00,
2013-02-04 12:06:00,42.2,22.0,30.10,SW,233,1.0,5.0,44,0.00,,,0.00,628,weatherlink.com 1.10,2013-02-04 17:06:00,
2013-02-04 12:21:00,42.8,22.0,30.10,West,269,2.0,9.0,43,0.00,,,0.00,617,weatherlink.com 1.10,2013-02-04 17:21:00,
2013-02-04 12:35:00,44.1,23.0,30.10,South,182,3.0,9.0,43,0.00,,,0.00,649,weatherlink.com 1.10,2013-02-04 17:35:00,
2013-02-04 12:50:00,44.6,23.0,30.09,SW,222,3.0,7.0,43,0.00,,,0.00,650,weatherlink.com 1.10,2013-02-04 17:50:00,
2013-02-04 13:05:00,45.1,22.0,30.07,South,188,0.0,7.0,40,0.00,,,0.00,645,weatherlink.com 1.10,2013-02-04 18:05:00,
2013-02-04 13:21:00,44.6,22.0,30.05,ESE,120,0.0,7.0,41,0.00,,,0.00,373,weatherlink.com 1.10,2013-02-04 18:21:00,
2013-02-04 13:36:00,45.2,22.0,30.05,SSE,155,1.0,6.0,40,0.00,,,0.00,257,weatherlink.com 1.10,2013-02-04 18:36:00,
2013-02-04 13:50:00,44.6,22.0,30.05,West,263,0.0,8.0,41,0.00,,,0.00,195,weatherlink.com 1.10,2013-02-04 18:50:00,
2013-02-04 14:07:00,44.6,23.0,30.05,SSW,213,3.0,5.0,43,0.00,,,0.00,241,weatherlink.com 1.10,2013-02-04 19:07:00,
2013-02-04 14:21:00,45.4,23.0,30.05,West,271,1.0,4.0,42,0.00,,,0.00,443,weatherlink.com 1.10,2013-02-04 19:21:00,
2013-02-04 14:37:00,46.2,24.0,30.05,West,259,1.0,10.0,41,0.00,,,0.00,455,weatherlink.com 1.10,2013-02-04 19:37:00,
2013-02-04 14:51:00,47.6,24.0,30.05,SW,228,4.0,7.0,40,0.00,,,0.00,441,weatherlink.com 1.10,2013-02-04 19:51:00,
2013-02-04 15:06:00,48.1,25.0,30.03,SW,228,0.0,7.0,40,0.00,,,0.00,443,weatherlink.com 1.10,2013-02-04 20:06:00,
2013-02-04 15:22:00,48.0,25.0,30.03,SSE,157,2.0,6.0,41,0.00,,,0.00,353,weatherlink.com 1.10,2013-02-04 20:22:00,
2013-02-04 15:36:00,47.9,25.0,30.03,SSE,148,1.0,5.0,41,0.00,,,0.00,253,weatherlink.com 1.10,2013-02-04 20:36:00,
2013-02-04 15:51:00,47.9,25.0,30.02,SW,233,2.0,10.0,41,0.00,,,0.00,192,weatherlink.com 1.10,2013-02-04 20:51:00,
2013-02-04 16:08:00,47.4,25.0,30.02,SSW,204,5.0,7.0,41,0.00,,,0.00,149,weatherlink.com 1.10,2013-02-04 21:08:00,
2013-02-04 16:21:00,47.0,25.0,30.02,SW,214,0.0,6.0,42,0.00,,,0.00,113,weatherlink.com 1.10,2013-02-04 21:21:00,
2013-02-04 16:36:00,46.8,25.0,30.01,SSW,199,6.0,6.0,42,0.00,,,0.00,81,weatherlink.com 1.10,2013-02-04 21:36:00,
2013-02-04 16:54:00,46.5,25.0,30.01,SW,217,2.0,7.0,43,0.00,,,0.00,62,weatherlink.com 1.10,2013-02-04 21:54:00,
2013-02-04 17:07:00,46.2,25.0,30.00,South,190,1.0,7.0,44,0.00,,,0.00,44,weatherlink.com 1.10,2013-02-04 22:07:00,
2013-02-04 17:22:00,45.9,25.0,30.00,South,179,2.0,6.0,45,0.00,,,0.00,30,weatherlink.com 1.10,2013-02-04 22:22:00,
2013-02-04 17:37:00,45.5,26.0,30.00,SSW,205,1.0,4.0,46,0.00,,,0.00,9,weatherlink.com 1.10,2013-02-04 22:37:00,
2013-02-04 17:54:00,45.0,26.0,30.00,SW,215,1.0,4.0,47,0.00,,,0.00,0,weatherlink.com 1.10,2013-02-04 22:54:00,
2013-02-04 18:08:00,44.7,26.0,30.00,SSW,209,0.0,6.0,48,0.00,,,0.00,0,weatherlink.com 1.10,2013-02-04 23:08:00,
2013-02-04 18:22:00,44.4,26.0,30.00,SSW,205,0.0,4.0,49,0.00,,,0.00,0,weatherlink.com 1.10,2013-02-04 23:22:00,
2013-02-04 18:38:00,44.1,26.0,30.00,SSE,153,1.0,4.0,50,0.00,,,0.00,0,weatherlink.com 1.10,2013-02-04 23:38:00,
2013-02-04 18:52:00,43.7,26.0,30.00,South,178,0.0,4.0,51,0.00,,,0.00,0,weatherlink.com 1.10,2013-02-04 23:52:00,
2013-02-04 19:07:00,43.8,26.0,30.00,SSW,200,0.0,4.0,50,0.00,,,0.00,0,weatherlink.com 1.10,2013-02-05 00:07:00,
2013-02-04 19:38:00,44.0,26.0,30.00,South,182,1.0,6.0,49,0.00,,,0.00,0,weatherlink.com 1.10,2013-02-05 00:38:00,
2013-02-04 19:53:00,44.0,26.0,30.00,SSW,210,2.0,6.0,49,0.00,,,0.00,0,weatherlink.com 1.10,2013-02-05 00:53:00,
2013-02-04 20:08:00,43.9,26.0,30.00,SW,214,4.0,6.0,50,0.00,,,0.00,0,weatherlink.com 1.10,2013-02-05 01:08:00,
2013-02-04 20:22:00,43.7,26.0,30.01,WSW,239,1.0,7.0,51,0.00,,,0.00,0,weatherlink.com 1.10,2013-02-05 01:22:00,
2013-02-04 20:38:00,43.7,26.0,30.00,SSW,201,2.0,8.0,51,0.00,,,0.00,0,weatherlink.com 1.10,2013-02-05 01:38:00,
2013-02-04 20:52:00,43.6,27.0,30.00,SSW,211,5.0,10.0,52,0.00,,,0.00,0,weatherlink.com 1.10,2013-02-05 01:52:00,
2013-02-04 21:07:00,43.4,27.0,30.00,SSW,197,2.0,6.0,53,0.00,,,0.00,0,weatherlink.com 1.10,2013-02-05 02:07:00,
2013-02-04 21:23:00,43.1,27.0,30.01,SSW,202,2.0,7.0,54,0.00,,,0.00,0,weatherlink.com 1.10,2013-02-05 02:23:00,
2013-02-04 21:38:00,42.8,27.0,30.00,SSW,200,0.0,7.0,55,0.00,,,0.00,0,weatherlink.com 1.10,2013-02-05 02:38:00,
2013-02-04 21:53:00,42.8,28.0,30.00,SSW,205,1.0,8.0,56,0.00,,,0.00,0,weatherlink.com 1.10,2013-02-05 02:53:00,
2013-02-04 22:07:00,42.5,28.0,30.00,SSW,200,2.0,6.0,57,0.00,,,0.00,0,weatherlink.com 1.10,2013-02-05 03:07:00,
2013-02-04 22:24:00,42.1,28.0,30.00,ESE,123,1.0,5.0,57,0.00,,,0.00,0,weatherlink.com 1.10,2013-02-05 03:24:00,
2013-02-04 22:38:00,41.8,28.0,30.00,South,176,1.0,9.0,58,0.00,,,0.00,0,weatherlink.com 1.10,2013-02-05 03:38:00,
2013-02-04 22:53:00,41.5,28.0,30.00,SSW,207,2.0,5.0,59,0.00,,,0.00,0,weatherlink.com 1.10,2013-02-05 03:53:00,
2013-02-04 23:09:00,41.4,28.0,29.99,South,184,0.0,7.0,60,0.00,,,0.00,0,weatherlink.com 1.10,2013-02-05 04:09:00,
2013-02-04 23:24:00,41.1,28.0,29.99,SW,216,0.0,7.0,60,0.00,,,0.00,0,weatherlink.com 1.10,2013-02-05 04:24:00,
2013-02-04 23:38:00,41.0,28.0,29.99,SW,225,1.0,7.0,61,0.00,,,0.00,0,weatherlink.com 1.10,2013-02-05 04:38:00,
2013-02-04 23:53:00,41.0,28.0,29.99,SSW,197,3.0,9.0,61,0.00,,,0.00,0,weatherlink.com 1.10,2013-02-05 04:53:00,